Cumberland, WV

11:16 PM EST on January 23, 2018 (GMT -0500)
Greater Cumberland Regional

Weather History for KCBE - April, 2014

Change the Weather History Date:

Monday, April 21, 2014

  Actual Average (KMRB) Record (KMRB)
Temperature  
Mean Temperature 58 °F -  
Max Temperature 78 °F 68 °F 96 °F (1941)
Min Temperature 37 °F 43 °F 27 °F (1956)
Degree Days  
Heating Degree Days 8    
Growing Degree Days 8 (Base 50)    
Moisture  
Dew Point 34 °F    
Average Humidity 47    
Maximum Humidity 87    
Minimum Humidity 17    
Precipitation  
Precipitation 0.00 in - - ()
Sea Level Pressure  
Sea Level Pressure 30.10 in    
Wind  
Wind Speed 2 mph (SSE)    
Max Wind Speed 9 mph    
Max Gust Speed -    
Visibility 10 miles    
Events      
Averages and records for this station are not official NWS values.
T = Trace of Precipitation, MM = Missing Value Source: NWS Daily Summary

Daily Weather History Graph

Daily Weather History Graph

Search for Another Location

Airport or City:

Trip Planner

Search our weather history database for the weather conditions in past years. The results will help you decide how hot, cold, wet, or windy it might be!

Date:

Astronomy

Apr. 21, 2014 Rise Set
Actual Time 6:29 AM EDT 7:59 PM EDT
Civil Twilight 6:00 AM EDT 8:27 PM EDT
Nautical Twilight 5:26 AM EDT 9:01 PM EDT
Astronomical Twilight 4:50 AM EDT 9:37 PM EDT
Moon 1:27 AM EDT (4/21) 11:53 AM EDT (4/21)
Length of Visible Light 14h 26m
Length of Day
13h 29m
Waning Gibbous, 58% of the Moon is Illuminated
Apr 21
Waning Gibbous
Apr 22
Last Quarter
Apr 29
New
May 6
First Quarter
May 14
Full

Hourly Weather History & Observations

Time (EDT) Temp. Windchill Dew Point Humidity Pressure Visibility Wind Dir Wind Speed Gust Speed Precip Events Conditions
12:07 AM 51.8 °F - 32.0 °F 47% 30.29 in 10.0 mi SSE 3.5 mph - N/A   Clear
12:27 AM 51.8 °F - 32.0 °F 47% 30.29 in 10.0 mi Calm Calm - N/A   Clear
12:47 AM 51.8 °F - 32.0 °F 47% 30.28 in 10.0 mi Calm Calm - N/A   Clear
1:07 AM 50.0 °F - 32.0 °F 50% 30.28 in 10.0 mi Calm Calm - N/A   Clear
1:27 AM 48.2 °F - 32.0 °F 54% 30.27 in 10.0 mi Calm Calm - N/A   Clear
1:47 AM 46.4 °F - 32.0 °F 57% 30.27 in 10.0 mi Calm Calm - N/A   Clear
2:07 AM 44.6 °F - 35.6 °F 71% 30.26 in 10.0 mi Calm Calm - N/A   Clear
2:27 AM 44.6 °F - 35.6 °F 71% 30.25 in 10.0 mi Calm Calm - N/A   Clear
2:47 AM 44.6 °F 43.1 °F 35.6 °F 71% 30.24 in 10.0 mi NW 3.5 mph - N/A   Clear
3:07 AM 42.8 °F - 33.8 °F 70% 30.24 in 10.0 mi Calm Calm - N/A   Clear
3:27 AM 42.8 °F - 35.6 °F 76% 30.24 in 10.0 mi Calm Calm - N/A   Clear
3:47 AM 42.8 °F - 33.8 °F 70% 30.24 in 10.0 mi Calm Calm - N/A   Clear
4:07 AM 42.8 °F - 33.8 °F 70% 30.24 in 10.0 mi Calm Calm - N/A   Clear
4:27 AM 41.0 °F - 33.8 °F 76% 30.24 in 10.0 mi Calm Calm - N/A   Clear
4:47 AM 39.2 °F - 35.6 °F 87% 30.24 in 10.0 mi Calm Calm - N/A   Clear
5:07 AM 41.0 °F - 35.6 °F 81% 30.24 in 10.0 mi Calm Calm - N/A   Clear
5:27 AM 39.2 °F - 33.8 °F 81% 30.24 in 10.0 mi Calm Calm - N/A   Clear
5:47 AM 37.4 °F - 33.8 °F 87% 30.23 in 10.0 mi Calm Calm - N/A   Clear
6:07 AM 37.4 °F - 33.8 °F 87% 30.23 in 10.0 mi Calm Calm - N/A   Clear
6:27 AM 37.4 °F - 33.8 °F 87% 30.23 in 10.0 mi Calm Calm - N/A   Clear
6:47 AM 37.4 °F - 33.8 °F 87% 30.23 in 10.0 mi Calm Calm - N/A   Clear
7:07 AM 37.4 °F - 33.8 °F 87% 30.23 in 10.0 mi Calm Calm - N/A   Clear
7:28 AM 39.2 °F - 35.6 °F 87% 30.23 in 10.0 mi Calm Calm - N/A   Clear
7:48 AM 41.0 °F - 35.6 °F 81% 30.23 in 10.0 mi Calm Calm - N/A   Clear
8:08 AM 42.8 °F - 35.6 °F 76% 30.23 in 10.0 mi Calm Calm - N/A   Clear
8:28 AM 44.6 °F - 35.6 °F 71% 30.22 in 10.0 mi Calm Calm - N/A   Clear
8:48 AM 46.4 °F - 35.6 °F 66% 30.22 in 10.0 mi Calm Calm - N/A   Clear
9:08 AM 46.4 °F - 35.6 °F 66% 30.22 in 10.0 mi Calm Calm - N/A   Clear
9:28 AM 50.0 °F - 35.6 °F 58% 30.20 in 10.0 mi Calm Calm - N/A   Clear
9:48 AM 51.8 °F - 35.6 °F 54% 30.20 in 10.0 mi Calm Calm - N/A   Clear
10:08 AM 53.6 °F - 35.6 °F 51% 30.19 in 10.0 mi South 3.5 mph - N/A   Clear
10:28 AM 55.4 °F - 35.6 °F 47% 30.18 in 10.0 mi Calm Calm - N/A   Clear
10:48 AM 57.2 °F - 35.6 °F 44% 30.17 in 10.0 mi SSW 4.6 mph - N/A   Clear
11:08 AM 59.0 °F - 35.6 °F 42% 30.16 in 10.0 mi SSE 3.5 mph - N/A   Clear
11:28 AM 60.8 °F - 33.8 °F 36% 30.15 in 10.0 mi ESE 5.8 mph - N/A   Clear
11:48 AM 60.8 °F - 33.8 °F 36% 30.14 in 10.0 mi ESE 5.8 mph - N/A   Clear
12:08 PM 62.6 °F - 33.8 °F 34% 30.12 in 10.0 mi South 4.6 mph - N/A   Clear
12:28 PM 64.4 °F - 35.6 °F 34% 30.11 in 10.0 mi Calm Calm - N/A   Clear
12:48 PM 66.2 °F - 35.6 °F 32% 30.10 in 10.0 mi South 4.6 mph - N/A   Clear
1:08 PM 68.0 °F - 35.6 °F 30% 30.08 in 10.0 mi SW 4.6 mph - N/A   Clear
1:28 PM 69.8 °F - 35.6 °F 28% 30.06 in 10.0 mi SE 6.9 mph - N/A   Clear
1:48 PM 71.6 °F - 35.6 °F 27% 30.05 in 10.0 mi SSW 4.6 mph - N/A   Clear
2:08 PM 73.4 °F - 35.6 °F 25% 30.04 in 10.0 mi SSW 5.8 mph - N/A   Clear
2:28 PM 73.4 °F - 35.6 °F 25% 30.02 in 10.0 mi South 6.9 mph - N/A   Clear
2:48 PM 75.2 °F - 33.8 °F 22% 30.01 in 10.0 mi Calm Calm - N/A   Clear
3:08 PM 77.0 °F - 33.8 °F 21% 29.99 in 10.0 mi Calm Calm - N/A   Clear
3:28 PM 77.0 °F - 32.0 °F 19% 29.98 in 10.0 mi SSW 4.6 mph - N/A   Clear
3:48 PM 78.8 °F - 32.0 °F 18% 29.96 in 10.0 mi SSE 4.6 mph - N/A   Clear
4:09 PM 78.8 °F - 32.0 °F 18% 29.95 in 10.0 mi East 5.8 mph - N/A   Clear
4:29 PM 77.0 °F - 32.0 °F 19% 29.94 in 10.0 mi East 3.5 mph - N/A   Clear
5:09 PM 78.8 °F - 30.2 °F 17% 29.92 in 10.0 mi Calm Calm - N/A   Clear
5:29 PM 78.8 °F - 30.2 °F 17% 29.92 in 10.0 mi SE 9.2 mph - N/A   Clear
5:49 PM 77.0 °F - 32.0 °F 19% 29.92 in 10.0 mi SE 6.9 mph - N/A   Clear
6:09 PM 75.2 °F - 30.2 °F 19% 29.92 in 10.0 mi ESE 8.1 mph - N/A   Clear
6:29 PM 73.4 °F - 32.0 °F 22% 29.92 in 10.0 mi SE 5.8 mph - N/A   Clear
6:49 PM 73.4 °F - 32.0 °F 22% 29.92 in 10.0 mi SSE 8.1 mph - N/A   Clear
7:09 PM 73.4 °F - 33.8 °F 23% 29.92 in 10.0 mi SE 8.1 mph - N/A   Clear
7:29 PM 71.6 °F - 32.0 °F 23% 29.92 in 10.0 mi SSE 5.8 mph - N/A   Clear
7:49 PM 69.8 °F - 32.0 °F 25% 29.92 in 10.0 mi SSE 4.6 mph - N/A   Clear
8:09 PM 69.8 °F - 32.0 °F 25% 29.92 in 10.0 mi SSE 4.6 mph - N/A   Clear
8:29 PM 68.0 °F - 32.0 °F 26% 29.92 in 10.0 mi South 3.5 mph - N/A   Clear
8:49 PM 68.0 °F - 32.0 °F 26% 29.92 in 10.0 mi Calm Calm - N/A   Clear
9:29 PM 66.2 °F - 32.0 °F 28% 29.92 in 10.0 mi Calm Calm - N/A   Clear
10:09 PM 66.2 °F - 32.0 °F 28% 29.90 in 10.0 mi Calm Calm - N/A   Clear
10:29 PM 64.4 °F - 32.0 °F 30% 29.90 in 10.0 mi Calm Calm - N/A   Clear
10:49 PM 64.4 °F - 33.8 °F 32% 29.90 in 10.0 mi Calm Calm - N/A   Clear
11:09 PM 62.6 °F - 33.8 °F 34% 29.90 in 10.0 mi Calm Calm - N/A   Clear
11:29 PM 60.8 °F - 37.4 °F 42% 29.89 in 10.0 mi Calm Calm - N/A   Clear
11:49 PM 60.8 °F - 35.6 °F 39% 29.89 in 10.0 mi NNW 3.5 mph - N/A   Clear